Location: Grevenbroich
(51.0902°N, 6.5859°E)
Time: 01:30:00
(UTC+01:00)

ISS - Visible Passes

Search period start: 01 December 2023 00:00
Search period end: 11 December 2023 00:00
Orbit: 416 x 417 km, 51.6° (Epoch: 30 November)

Date Brightness Start Highest point End Pass type
(mag) Time Alt. Az. Time Alt. Az. Time Alt. Az.
01 Dec -3.1 18:16:29 10° W 18:19:47 53° SSW 18:21:30 24° SE visible
01 Dec -0.3 19:54:08 10° WSW 19:54:25 11° WSW 19:54:25 11° WSW visible
02 Dec -3.5 17:28:01 10° W 17:31:22 70° SSW 17:34:43 10° ESE visible
02 Dec -1.5 19:05:09 10° W 19:07:43 20° SW 19:08:21 19° SSW visible
03 Dec -1.9 18:16:26 10° W 18:19:23 29° SSW 18:22:20 10° SSE visible
04 Dec -2.4 17:27:45 10° W 17:30:57 40° SSW 17:34:07 10° SE visible
05 Dec -0.7 18:16:39 10° WSW 18:18:38 15° SW 18:20:37 10° S visible
06 Dec -1.0 17:27:32 10° W 17:30:11 22° SW 17:32:49 10° SSE visible
08 Dec 0.0 17:28:21 10° WSW 17:29:03 10° SW 17:29:45 10° SSW visible
